Location: Baak
(52.0776°N, 6.2265°E)
Time: 18:42:35
(UTC+00:00)

Cosmos 1328 - Pass Details

Date: 14 August 2025
Orbit: 454 x 467 km, 82.5° (Epoch: 20 May)

Event Time Altitude Azimuth Distance (km) Brightness Sun altitude
Rises 03:06:07 0° 345° (NNW) 2,532 7.6 -10.1°
Reaches altitude 10° 03:08:16 10° 340° (NNW) 1,642 6.5 -9.8°
Maximum altitude 03:11:44 50° 265° (W) 606 3.7 -9.4°
Drops below altitude 10° 03:15:09 10° 189° (S) 1,609 5.8 -9.0°
Enters shadow 03:16:33 - 185° (S) 2,188 6.5 -8.8°
